FENGYUN 1C DEB, 35159

Orbit data source: Space-Track

FENGYUN 1C DEB, 35159 is space debris in SSO originally from a launch on Mon, 10 May 1999 UTC launched from the Taiyaun Space Center, China (TSC). Fengyun 1C debris stems from the Chinese weather satellite Fengyun-1C, which was intentionally destroyed by a Chinese anti-satellite missile in 2007. This event dramatically increased the amount of space debris, with thousands of trackable fragments posing hazards to satellites and human spaceflight. The Fengyun 1C debris cloud has become a focal point in discussions about space sustainability and the need for international regulations to prevent the creation of new debris.

Loading next visibility...
Identifier
35159, 1999-025DMP
Orbit
SSO
Country
Flag of CNCN / PRC
Related business
Manufacturer
Unknown
Mission
Spacecraft
Bus & Motor
Unknown
Mass
Unknown
Launch date (UTC)
1999-05-10 (27 years ago)
Launch vehicle
Unknown
Launch site
Taiyaun Space Center, China (TSC)
Object type
Payload
Rocket body
Debris
Shape & HBR
Unknown shape, 0.1 m
Radar Cross Section
Small (<0.1 m²)

Expand to show TLE details & history
Last TLE update: 3 weeks ago

TLE from 3 weeks ago
0 FENGYUN 1C DEB
1 35159U 99025DMP 26149.72997140  .00007037  00000-0  19204-2 0  9994
2 35159  98.8316 237.0215 0010586  36.2808 114.9356 14.47608550639093
Epoch: 2026-05-29T17:31Z
TLE epoch observation values (Epoch: 2026-05-29T17:31:09.528Z)
Latitude
28.34831°
Longitude
-88.24147°
Altitude
740.166 km
Speed
7.486 km/s
True Right ascension
04h 07m 13s
True Declination
28° 12' 16"
Sunlit
Object was in daylight at epoch
Visualization orbit readout
Latitude
Unknown
Longitude
Unknown
Altitude
Unknown
Speed
Unknown
Apparent Right ascension
Unknown
Apparent Declination
Unknown
Sunlit
N/A
Visualization observer readout
Local Sidereal Time
22:32:52
Azimuth
Unknown
Elevation
Unknown
Doppler factor
Unknown
Orbital elements
Apogee altitude
738.123 km
Perigee altitude
723.072 km
Semi-major axis
7,108.735 km
Eccentricity
0.00106
Inclination
98.8316°
RAAN
237.0215°
Arg. of periapsis
36.2808°
True anomaly
115.04554°
Mean anomaly
114.9356°
Eccentric anomaly
114.99057°
Mean motion
3.62122 °/min
Orbital period
99.41 mins
BSTAR
0.0019204
Loading maneuver chart data...
Computing Atmospheric mass density...

Documentation

Showing up to 5 results
|